Grand Marais, MN

2:31 PM CST on February 26, 2017 (GMT -0600)
Grand Marais-Cook County

Weather History for KCKC - February, 2014

Change the Weather History Date:

Monday, February 17, 2014

  Actual Average Record
Temperature  
Mean Temperature 10 °F -  
Max Temperature 17 °F 21 °F 44 °F (2017)
Min Temperature 3 °F 5 °F -18 °F (2006)
Degree Days  
Heating Degree Days 55    
Moisture  
Dew Point 8 °F    
Average Humidity 83    
Maximum Humidity 93    
Minimum Humidity 78    
Precipitation  
Precipitation 0.00 in - - ()
Sea Level Pressure  
Sea Level Pressure 29.76 in    
Wind  
Wind Speed 6 mph (SE)    
Max Wind Speed 12 mph    
Max Gust Speed 20 mph    
Visibility 4 miles    
Events Snow    
Averages and records for this station are not official NWS values.
T = Trace of Precipitation, MM = Missing Value Source: NWS Daily Summary

Daily Weather History Graph

Daily Weather History Graph

Search for Another Location

Airport or City:

Trip Planner

Search our weather history database for the weather conditions in past years. The results will help you decide how hot, cold, wet, or windy it might be!

Date:

Astronomy

Feb. 17, 2014 Rise Set
Actual Time 7:04 AM CST 5:27 PM CST
Civil Twilight 6:32 AM CST 5:59 PM CST
Nautical Twilight 5:56 AM CST 6:35 PM CST
Astronomical Twilight 5:20 AM CST 7:11 PM CST
Moon 8:38 PM CST (2/17) 7:50 AM CST (2/17)
Length of Visible Light 11h 26m
Length of Day
10h 23m
Waning Gibbous, 93% of the Moon is Illuminated
Feb 17
Waning Gibbous
Feb 22
Last Quarter
Mar 1
New
Mar 8
First Quarter
Mar 16
Full

Hourly Weather History & Observations

Time (CST) Temp. Windchill Dew Point Humidity Pressure Visibility Wind Dir Wind Speed Gust Speed Precip Events Conditions
12:13 AM 3.2 °F -6.2 °F -0.4 °F 85% 30.06 in 10.0 mi East 4.6 mph - N/A   Scattered Clouds
12:33 AM 3.2 °F -7.8 °F -0.4 °F 85% 30.06 in 10.0 mi ESE 5.8 mph - N/A   Scattered Clouds
12:53 AM 3.2 °F -9.1 °F -0.4 °F 85% 30.05 in 10.0 mi East 6.9 mph - N/A   Scattered Clouds
1:14 AM 3.2 °F -7.8 °F -0.4 °F 85% 30.04 in 10.0 mi East 5.8 mph - N/A   Clear
1:34 AM 5.0 °F -6.9 °F -0.4 °F 78% 30.04 in 10.0 mi ESE 6.9 mph - N/A   Mostly Cloudy
1:54 AM 5.0 °F -5.6 °F -0.4 °F 78% 30.03 in 10.0 mi ESE 5.8 mph - N/A Snow Light Snow
2:13 AM 6.8 °F -2.0 °F 1.4 °F 79% 30.02 in 10.0 mi ESE 4.6 mph - N/A   Scattered Clouds
2:33 AM 6.8 °F -3.5 °F 1.4 °F 79% 30.01 in 10.0 mi ESE 5.8 mph - N/A   Mostly Cloudy
2:53 AM 6.8 °F -4.8 °F 1.4 °F 79% 30.00 in 10.0 mi ESE 6.9 mph - N/A   Overcast
3:14 AM 6.8 °F -5.9 °F 1.4 °F 79% 29.98 in 10.0 mi ESE 8.1 mph - N/A Snow Light Snow
3:33 AM 6.8 °F -2.0 °F 3.2 °F 85% 29.98 in 7.0 mi SE 4.6 mph - N/A Snow Light Snow
3:53 AM 8.6 °F -2.6 °F 3.2 °F 79% 29.96 in 10.0 mi ESE 6.9 mph - N/A Snow Light Snow
4:13 AM 8.6 °F -1.3 °F 3.2 °F 79% 29.95 in 10.0 mi SE 5.8 mph - N/A Snow Light Snow
4:34 AM 8.6 °F -1.3 °F 3.2 °F 79% 29.94 in 10.0 mi ESE 5.8 mph - N/A Snow Light Snow
4:53 AM 8.6 °F -1.3 °F 3.2 °F 79% 29.92 in 4.0 mi ESE 5.8 mph - N/A Snow Light Snow
5:13 AM 8.6 °F -3.7 °F 3.2 °F 79% 29.91 in 5.0 mi ESE 8.1 mph - N/A Snow Light Snow
5:33 AM 8.6 °F -3.7 °F 3.2 °F 79% 29.89 in 4.0 mi ESE 8.1 mph - N/A Snow Light Snow
5:53 AM 8.6 °F -3.7 °F 3.2 °F 79% 29.88 in 1.5 mi ESE 8.1 mph 16.1 mph N/A Snow Light Snow
6:13 AM 8.6 °F -5.5 °F 3.2 °F 79% 29.87 in 1.2 mi ESE 10.4 mph 18.4 mph N/A Snow Light Snow
6:34 AM 8.6 °F -4.7 °F 3.2 °F 79% 29.86 in 1.2 mi ESE 9.2 mph 17.3 mph N/A Snow Light Snow
6:53 AM 8.6 °F -6.3 °F 3.2 °F 79% 29.85 in 1.0 mi ESE 11.5 mph 19.6 mph N/A Snow Light Snow
7:13 AM 8.6 °F -6.3 °F 3.2 °F 79% 29.84 in 0.5 mi ESE 11.5 mph 17.3 mph N/A Snow Snow
7:34 AM 8.6 °F -6.3 °F 3.2 °F 79% 29.83 in 0.5 mi ESE 11.5 mph 17.3 mph N/A Snow Snow
7:54 AM 8.6 °F -3.7 °F 3.2 °F 79% 29.82 in 0.8 mi East 8.1 mph - N/A Snow Snow
8:13 AM 8.6 °F -4.7 °F 3.2 °F 79% 29.81 in 1.0 mi East 9.2 mph - N/A Snow Light Snow
8:34 AM 10.4 °F -3.3 °F 5.0 °F 79% 29.80 in 1.0 mi East 10.4 mph - N/A Snow Snow
8:53 AM 10.4 °F -4.1 °F 5.0 °F 79% 29.79 in 0.8 mi East 11.5 mph 17.3 mph N/A Snow Snow
9:13 AM 10.4 °F -1.5 °F 5.0 °F 79% 29.79 in 0.8 mi ESE 8.1 mph 18.4 mph N/A Snow Snow
9:34 AM 10.4 °F -2.4 °F 5.0 °F 79% 29.78 in 0.8 mi East 9.2 mph - N/A Snow Snow
9:53 AM 10.4 °F -2.4 °F 6.8 °F 85% 29.77 in 1.2 mi East 9.2 mph - N/A Snow Light Snow
10:13 AM 10.4 °F -3.3 °F 6.8 °F 85% 29.77 in 1.8 mi East 10.4 mph 16.1 mph N/A Snow Light Snow
10:34 AM 10.4 °F -3.3 °F 6.8 °F 85% 29.75 in 1.8 mi East 10.4 mph - N/A Snow Light Snow
10:53 AM 10.4 °F -3.3 °F 6.8 °F 85% 29.75 in 1.0 mi East 10.4 mph - N/A Snow Light Snow
11:13 AM 12.2 °F 0.7 °F 8.6 °F 85% 29.75 in 0.5 mi East 8.1 mph - N/A Snow Light Snow
11:34 AM 12.2 °F 0.7 °F 8.6 °F 85% 29.74 in 0.5 mi East 8.1 mph - N/A Snow Light Snow
11:53 AM 14.0 °F 3.9 °F 8.6 °F 79% 29.72 in 0.8 mi East 6.9 mph - N/A Snow Light Snow
12:13 PM 15.8 °F 6.1 °F 10.4 °F 79% 29.71 in 1.2 mi East 6.9 mph - N/A Snow Light Snow
12:33 PM 15.8 °F 4.2 °F 10.4 °F 79% 29.70 in 0.5 mi ESE 9.2 mph - N/A Snow Light Snow
12:54 PM 15.8 °F 8.6 °F 10.4 °F 79% 29.69 in 0.5 mi ESE 4.6 mph - N/A Snow Snow
1:13 PM 15.8 °F 7.2 °F 10.4 °F 79% 29.69 in 0.5 mi East 5.8 mph - N/A   Overcast
1:33 PM 17.6 °F 8.2 °F 12.2 °F 79% 29.68 in 0.5 mi ESE 6.9 mph - N/A Snow Light Snow
1:54 PM 17.6 °F 10.7 °F 12.2 °F 79% 29.67 in 0.5 mi SE 4.6 mph - N/A Snow Snow
2:13 PM 17.6 °F 10.7 °F 12.2 °F 79% 29.67 in 0.2 mi SE 4.6 mph - N/A Snow Snow
2:33 PM 17.6 °F 8.2 °F 12.2 °F 79% 29.66 in 0.2 mi ESE 6.9 mph - N/A Snow Snow
2:54 PM 17.6 °F 10.7 °F 12.2 °F 79% 29.66 in 0.5 mi ESE 4.6 mph - N/A Snow Snow
3:13 PM 17.6 °F 9.3 °F 14.0 °F 86% 29.65 in 0.8 mi ESE 5.8 mph - N/A Snow Snow
3:33 PM 17.6 °F 8.2 °F 14.0 °F 86% 29.65 in 0.5 mi ESE 6.9 mph - N/A Snow Snow
3:54 PM 17.6 °F 12.3 °F 14.0 °F 86% 29.65 in 1.0 mi ESE 3.5 mph - N/A Snow Snow
4:13 PM 17.6 °F 10.7 °F 14.0 °F 86% 29.64 in 1.0 mi SE 4.6 mph - N/A Snow Light Snow
4:33 PM 17.6 °F 10.7 °F 14.0 °F 86% 29.64 in 1.5 mi ESE 4.6 mph - N/A Snow Light Snow
4:54 PM 17.6 °F 12.3 °F 14.0 °F 86% 29.63 in 1.8 mi SE 3.5 mph - N/A Snow Light Snow
5:13 PM 17.6 °F 12.3 °F 14.0 °F 86% 29.63 in 1.8 mi SE 3.5 mph - N/A Snow Light Snow
5:34 PM 17.6 °F - 14.0 °F 86% 29.63 in 3.0 mi Calm Calm - N/A Snow Light Snow
5:54 PM 17.6 °F 9.3 °F 15.8 °F 93% 29.63 in 3.0 mi SE 5.8 mph - N/A Snow Light Snow
6:13 PM 17.6 °F 9.3 °F 15.8 °F 93% 29.63 in 3.0 mi SSE 5.8 mph - N/A Snow Light Snow
6:33 PM 17.6 °F 10.7 °F 15.8 °F 93% 29.63 in 2.0 mi South 4.6 mph - N/A Snow Light Snow
6:54 PM 17.6 °F 10.7 °F 15.8 °F 93% 29.63 in 2.0 mi South 4.6 mph - N/A Snow Light Snow
7:13 PM 17.6 °F 10.7 °F 15.8 °F 93% 29.63 in 3.0 mi SSE 4.6 mph - N/A Snow Light Snow
7:33 PM 17.6 °F 9.3 °F 15.8 °F 93% 29.62 in 3.0 mi South 5.8 mph - N/A Snow Light Snow
7:54 PM 17.6 °F 9.3 °F 15.8 °F 93% 29.62 in 4.0 mi South 5.8 mph - N/A Snow Light Snow
8:13 PM 17.6 °F 10.7 °F 15.8 °F 93% 29.62 in 5.0 mi South 4.6 mph - N/A Snow Light Snow
8:33 PM 17.6 °F 9.3 °F 15.8 °F 93% 29.63 in 5.0 mi SSW 5.8 mph - N/A   Overcast
8:53 PM 17.6 °F 8.2 °F 14.0 °F 86% 29.62 in 5.0 mi South 6.9 mph - N/A   Overcast
9:13 PM 17.6 °F 9.3 °F 14.0 °F 86% 29.62 in 7.0 mi SSW 5.8 mph - N/A   Overcast
9:33 PM 15.8 °F 10.2 °F 12.2 °F 86% 29.62 in 7.0 mi SSW 3.5 mph - N/A   Mostly Cloudy
9:53 PM 15.8 °F - 10.4 °F 79% 29.61 in 10.0 mi Calm Calm - N/A   Scattered Clouds
10:14 PM 15.8 °F - 10.4 °F 79% 29.61 in 7.0 mi Calm Calm - N/A   Scattered Clouds
10:33 PM 15.8 °F 10.2 °F 10.4 °F 79% 29.61 in 10.0 mi SSW 3.5 mph - N/A   Overcast
10:53 PM 14.0 °F - 10.4 °F 86% 29.60 in 10.0 mi Calm Calm - N/A   Overcast
11:14 PM 12.2 °F 6.1 °F 8.6 °F 85% 29.60 in 10.0 mi SSW 3.5 mph - N/A   Scattered Clouds
11:33 PM 10.4 °F - 6.8 °F 85% 29.60 in 10.0 mi Calm Calm - N/A   Clear
11:53 PM 10.4 °F 4.0 °F 6.8 °F 85% 29.60 in 10.0 mi SSW 3.5 mph - N/A   Clear